Time,TemperatureF,DewpointF,PressureIn,WindDirection,WindDirectionDegrees,WindSpeedMPH,WindSpeedGustMPH,Humidity,HourlyPrecipIn,Conditions,Clouds,dailyrainin,SolarRadiationWatts/m^2,SoftwareType,DateUTC
2013-06-05 00:02:00,52.0,50.0,-100.00,East,95,8.0,11.0,94,0.00,,,0.60,0.000000,,2013-06-05 05:02:00,
2013-06-05 00:32:00,52.0,50.0,-100.00,East,97,7.0,13.0,94,0.00,,,0.60,0.000000,,2013-06-05 05:32:00,
2013-06-05 00:42:00,52.0,50.0,-100.00,East,97,7.0,13.0,94,0.00,,,0.60,0.000000,,2013-06-05 05:42:00,
2013-06-05 00:52:00,52.0,50.0,-100.00,East,97,7.0,13.0,94,0.00,,,0.60,0.000000,,2013-06-05 05:52:00,
2013-06-05 01:02:00,52.0,50.0,-100.00,East,97,7.0,13.0,94,0.00,,,0.60,0.000000,,2013-06-05 06:02:00,
2013-06-05 01:32:00,52.0,51.0,-100.00,East,91,8.0,10.0,96,0.00,,,0.60,0.000000,,2013-06-05 06:32:00,
2013-06-05 01:42:00,52.0,51.0,-100.00,East,91,8.0,10.0,96,0.00,,,0.60,0.000000,,2013-06-05 06:42:00,
2013-06-05 01:52:00,52.0,51.0,-100.00,East,91,8.0,10.0,96,0.00,,,0.60,0.000000,,2013-06-05 06:52:00,
2013-06-05 02:02:00,52.0,51.0,-100.00,East,91,8.0,10.0,96,0.00,,,0.60,0.000000,,2013-06-05 07:02:00,
2013-06-05 02:32:00,52.0,51.0,-100.00,ESE,104,6.0,11.0,96,0.01,,,0.61,0.000000,,2013-06-05 07:32:00,
2013-06-05 02:42:00,52.0,51.0,-100.00,ESE,104,6.0,11.0,96,0.01,,,0.61,0.000000,,2013-06-05 07:42:00,
2013-06-05 02:52:00,52.0,51.0,-100.00,ESE,104,6.0,11.0,96,0.01,,,0.61,0.000000,,2013-06-05 07:52:00,
2013-06-05 03:02:00,52.0,51.0,-100.00,ESE,104,6.0,11.0,96,0.01,,,0.61,0.000000,,2013-06-05 08:02:00,
2013-06-05 03:32:00,52.0,51.0,-100.00,NNE,20,3.0,11.0,97,0.02,,,0.63,0.000000,,2013-06-05 08:32:00,
2013-06-05 03:42:00,52.0,51.0,-100.00,NNE,20,3.0,11.0,97,0.02,,,0.63,0.000000,,2013-06-05 08:42:00,
2013-06-05 03:52:00,52.0,51.0,-100.00,NNE,20,3.0,11.0,97,0.02,,,0.63,0.000000,,2013-06-05 08:52:00,
2013-06-05 04:02:00,52.0,51.0,-100.00,NNE,20,3.0,11.0,97,0.02,,,0.63,0.000000,,2013-06-05 09:02:00,
2013-06-05 04:33:00,52.0,51.0,-100.00,ENE,78,7.0,10.0,98,0.25,,,0.88,0.000000,,2013-06-05 09:33:00,
2013-06-05 04:43:00,52.0,51.0,-100.00,ENE,78,7.0,10.0,98,0.25,,,0.88,0.000000,,2013-06-05 09:43:00,
2013-06-05 04:53:00,52.0,51.0,-100.00,ENE,78,7.0,10.0,98,0.25,,,0.88,0.000000,,2013-06-05 09:53:00,
2013-06-05 05:03:00,52.0,51.0,-100.00,ENE,78,7.0,10.0,98,0.25,,,0.88,0.000000,,2013-06-05 10:03:00,
2013-06-05 05:33:00,52.0,51.0,-100.00,East,82,7.0,10.0,98,0.01,,,0.89,0.000000,,2013-06-05 10:33:00,
2013-06-05 05:43:00,52.0,51.0,-100.00,East,82,7.0,10.0,98,0.01,,,0.89,0.000000,,2013-06-05 10:43:00,
2013-06-05 05:53:00,52.0,51.0,-100.00,East,82,7.0,10.0,98,0.01,,,0.89,0.000000,,2013-06-05 10:53:00,
2013-06-05 06:02:00,52.0,51.0,-100.00,East,82,7.0,10.0,98,0.01,,,0.89,0.000000,,2013-06-05 11:02:00,
2013-06-05 06:33:00,52.0,51.0,-100.00,East,83,8.0,12.0,98,0.01,,,0.90,1.000000,,2013-06-05 11:33:00,
2013-06-05 06:42:00,52.0,51.0,-100.00,East,83,8.0,12.0,98,0.01,,,0.90,1.000000,,2013-06-05 11:42:00,
2013-06-05 06:52:00,52.0,51.0,-100.00,East,83,8.0,12.0,98,0.01,,,0.90,1.000000,,2013-06-05 11:52:00,
2013-06-05 07:02:00,52.0,51.0,-100.00,East,83,8.0,12.0,98,0.01,,,0.90,1.000000,,2013-06-05 12:02:00,
2013-06-05 07:32:00,52.0,51.0,-100.00,East,83,7.0,11.0,98,0.02,,,0.92,16.000000,,2013-06-05 12:32:00,
2013-06-05 07:44:00,52.0,51.0,-100.00,East,83,7.0,11.0,98,0.02,,,0.92,16.000000,,2013-06-05 12:44:00,
2013-06-05 07:52:00,52.0,51.0,-100.00,East,83,7.0,11.0,98,0.02,,,0.92,16.000000,,2013-06-05 12:52:00,
2013-06-05 08:02:00,52.0,51.0,-100.00,East,83,7.0,11.0,98,0.02,,,0.92,16.000000,,2013-06-05 13:02:00,
2013-06-05 08:33:00,53.0,52.0,-100.00,ESE,108,7.0,12.0,97,0.00,,,0.92,36.000000,,2013-06-05 13:33:00,
2013-06-05 08:42:00,53.0,52.0,-100.00,ESE,108,7.0,12.0,97,0.00,,,0.92,36.000000,,2013-06-05 13:42:00,
2013-06-05 08:52:00,53.0,52.0,-100.00,ESE,108,7.0,12.0,97,0.00,,,0.92,36.000000,,2013-06-05 13:52:00,
2013-06-05 09:02:00,53.0,52.0,-100.00,ESE,108,7.0,12.0,97,0.00,,,0.92,36.000000,,2013-06-05 14:02:00,
2013-06-05 09:32:00,53.0,52.0,-100.00,East,99,8.0,13.0,97,0.01,,,0.93,52.000000,,2013-06-05 14:32:00,
2013-06-05 09:42:00,53.0,52.0,-100.00,East,99,8.0,13.0,97,0.01,,,0.93,52.000000,,2013-06-05 14:42:00,
2013-06-05 09:52:00,53.0,52.0,-100.00,East,99,8.0,13.0,97,0.01,,,0.93,52.000000,,2013-06-05 14:52:00,
2013-06-05 10:02:00,53.0,52.0,-100.00,East,99,8.0,13.0,97,0.01,,,0.93,52.000000,,2013-06-05 15:02:00,
2013-06-05 10:33:00,53.0,52.0,-100.00,ESE,103,8.0,13.0,96,0.00,,,0.93,96.000000,,2013-06-05 15:33:00,
2013-06-05 10:43:00,53.0,52.0,-100.00,ESE,103,8.0,13.0,96,0.00,,,0.93,96.000000,,2013-06-05 15:43:00,
2013-06-05 10:53:00,53.0,52.0,-100.00,ESE,103,8.0,13.0,96,0.00,,,0.93,96.000000,,2013-06-05 15:53:00,
2013-06-05 11:03:00,53.0,52.0,-100.00,ESE,103,8.0,13.0,96,0.00,,,0.93,96.000000,,2013-06-05 16:03:00,
2013-06-05 11:32:00,54.0,53.0,-100.00,ESE,106,6.0,14.0,95,0.00,,,0.93,110.000000,,2013-06-05 16:32:00,
2013-06-05 11:42:00,54.0,53.0,-100.00,ESE,106,6.0,14.0,95,0.00,,,0.93,110.000000,,2013-06-05 16:42:00,
2013-06-05 11:54:00,54.0,53.0,-100.00,ESE,106,6.0,14.0,95,0.00,,,0.93,110.000000,,2013-06-05 16:54:00,
2013-06-05 12:02:00,54.0,53.0,-100.00,ESE,106,6.0,14.0,95,0.00,,,0.93,110.000000,,2013-06-05 17:02:00,
2013-06-05 12:33:00,54.0,52.0,-100.00,ESE,104,6.0,12.0,93,0.00,,,0.93,102.000000,,2013-06-05 17:33:00,
2013-06-05 12:43:00,54.0,52.0,-100.00,ESE,104,6.0,12.0,93,0.00,,,0.93,102.000000,,2013-06-05 17:43:00,
2013-06-05 12:52:00,54.0,52.0,-100.00,ESE,104,6.0,12.0,93,0.00,,,0.93,102.000000,,2013-06-05 17:52:00,
2013-06-05 13:02:00,54.0,52.0,-100.00,ESE,104,6.0,12.0,93,0.00,,,0.93,102.000000,,2013-06-05 18:02:00,
2013-06-05 13:32:00,54.0,53.0,-100.00,East,87,6.0,10.0,95,0.07,,,1.00,56.000000,,2013-06-05 18:32:00,
2013-06-05 13:42:00,54.0,53.0,-100.00,East,87,6.0,10.0,95,0.07,,,1.00,56.000000,,2013-06-05 18:42:00,
2013-06-05 13:52:00,54.0,53.0,-100.00,East,87,6.0,10.0,95,0.07,,,1.00,56.000000,,2013-06-05 18:52:00,
2013-06-05 14:02:00,54.0,53.0,-100.00,East,87,6.0,10.0,95,0.07,,,1.00,56.000000,,2013-06-05 19:02:00,
2013-06-05 14:32:00,54.0,53.0,-100.00,North,0,3.0,9.0,96,0.12,,,1.12,53.000000,,2013-06-05 19:32:00,
2013-06-05 14:42:00,54.0,53.0,-100.00,North,0,3.0,9.0,96,0.12,,,1.12,53.000000,,2013-06-05 19:42:00,
2013-06-05 14:53:00,54.0,53.0,-100.00,North,0,3.0,9.0,96,0.12,,,1.12,53.000000,,2013-06-05 19:53:00,
2013-06-05 15:02:00,54.0,53.0,-100.00,North,0,3.0,9.0,96,0.12,,,1.12,53.000000,,2013-06-05 20:02:00,
2013-06-05 15:32:00,54.0,53.0,-100.00,NNE,31,3.0,6.0,97,0.32,,,1.38,37.000000,,2013-06-05 20:32:00,
2013-06-05 15:42:00,54.0,53.0,-100.00,NNE,31,3.0,6.0,97,0.32,,,1.38,37.000000,,2013-06-05 20:42:00,
2013-06-05 15:52:00,54.0,53.0,-100.00,NNE,31,3.0,6.0,97,0.32,,,1.38,37.000000,,2013-06-05 20:52:00,
2013-06-05 16:02:00,54.0,53.0,-100.00,NNE,31,3.0,6.0,97,0.32,,,1.38,37.000000,,2013-06-05 21:02:00,
2013-06-05 16:33:00,56.0,54.0,-100.00,ENE,63,6.0,10.0,94,0.01,,,1.26,138.000000,,2013-06-05 21:33:00,
2013-06-05 16:43:00,56.0,54.0,-100.00,ENE,63,6.0,10.0,94,0.01,,,1.26,138.000000,,2013-06-05 21:43:00,
2013-06-05 16:53:00,56.0,54.0,-100.00,ENE,63,6.0,10.0,94,0.01,,,1.26,138.000000,,2013-06-05 21:53:00,
2013-06-05 17:02:00,56.0,54.0,-100.00,ENE,63,6.0,10.0,94,0.01,,,1.26,138.000000,,2013-06-05 22:02:00,
2013-06-05 17:33:00,55.0,53.0,-100.00,NNE,33,6.0,13.0,92,0.00,,,1.20,230.000000,,2013-06-05 22:33:00,
2013-06-05 17:43:00,55.0,53.0,-100.00,NNE,33,6.0,13.0,92,0.00,,,1.20,230.000000,,2013-06-05 22:43:00,
2013-06-05 17:53:00,55.0,53.0,-100.00,NNE,33,6.0,13.0,92,0.00,,,1.20,230.000000,,2013-06-05 22:53:00,
2013-06-05 18:02:00,55.0,53.0,-100.00,NNE,33,6.0,13.0,92,0.00,,,1.20,230.000000,,2013-06-05 23:02:00,
2013-06-05 18:32:00,54.0,52.0,-100.00,NNE,23,6.0,11.0,92,0.00,,,1.20,174.000000,,2013-06-05 23:32:00,
2013-06-05 18:42:00,54.0,52.0,-100.00,NNE,23,6.0,11.0,92,0.00,,,1.20,174.000000,,2013-06-05 23:42:00,
2013-06-05 18:53:00,54.0,52.0,-100.00,NNE,23,6.0,11.0,92,0.00,,,1.20,174.000000,,2013-06-05 23:53:00,
2013-06-05 19:02:00,54.0,52.0,-100.00,NNE,23,6.0,11.0,92,0.00,,,1.20,174.000000,,2013-06-06 00:02:00,
2013-06-05 19:32:00,50.0,48.0,-100.00,NNE,14,6.0,14.0,93,0.00,,,1.16,65.000000,,2013-06-06 00:32:00,
2013-06-05 19:43:00,50.0,48.0,-100.00,NNE,14,6.0,14.0,93,0.00,,,1.16,65.000000,,2013-06-06 00:43:00,
2013-06-05 19:52:00,50.0,48.0,-100.00,NNE,14,6.0,14.0,93,0.00,,,1.16,65.000000,,2013-06-06 00:52:00,
2013-06-05 20:02:00,50.0,48.0,-100.00,NNE,14,6.0,14.0,93,0.00,,,1.16,65.000000,,2013-06-06 01:02:00,
2013-06-05 20:32:00,49.0,47.0,-100.00,NNE,25,6.0,15.0,93,0.00,,,1.04,38.000000,,2013-06-06 01:32:00,
2013-06-05 20:42:00,49.0,47.0,-100.00,NNE,25,6.0,15.0,93,0.00,,,1.04,38.000000,,2013-06-06 01:42:00,
2013-06-05 20:53:00,49.0,47.0,-100.00,NNE,25,6.0,15.0,93,0.00,,,1.04,38.000000,,2013-06-06 01:53:00,
2013-06-05 21:02:00,49.0,47.0,-100.00,NNE,25,6.0,15.0,93,0.00,,,1.04,38.000000,,2013-06-06 02:02:00,
2013-06-05 21:32:00,48.0,46.0,-100.00,NNE,26,6.0,11.0,94,0.00,,,0.86,8.000000,,2013-06-06 02:32:00,
2013-06-05 21:42:00,48.0,46.0,-100.00,NNE,26,6.0,11.0,94,0.00,,,0.86,8.000000,,2013-06-06 02:42:00,
2013-06-05 21:52:00,48.0,46.0,-100.00,NNE,26,6.0,11.0,94,0.00,,,0.86,8.000000,,2013-06-06 02:52:00,
2013-06-05 22:02:00,48.0,46.0,-100.00,NNE,26,6.0,11.0,94,0.00,,,0.86,8.000000,,2013-06-06 03:02:00,
2013-06-05 22:33:00,47.0,45.0,-100.00,NNE,31,5.0,10.0,94,0.00,,,0.85,0.000000,,2013-06-06 03:33:00,
2013-06-05 22:43:00,47.0,45.0,-100.00,NNE,31,5.0,10.0,94,0.00,,,0.85,0.000000,,2013-06-06 03:43:00,
2013-06-05 22:53:00,47.0,45.0,-100.00,NNE,31,5.0,10.0,94,0.00,,,0.85,0.000000,,2013-06-06 03:53:00,
2013-06-05 23:03:00,47.0,45.0,-100.00,NNE,31,5.0,10.0,94,0.00,,,0.85,0.000000,,2013-06-06 04:03:00,
2013-06-05 23:33:00,47.0,45.0,-100.00,NNE,25,5.0,10.0,93,0.00,,,0.85,0.000000,,2013-06-06 04:33:00,
2013-06-05 23:42:00,47.0,45.0,-100.00,NNE,25,5.0,10.0,93,0.00,,,0.85,0.000000,,2013-06-06 04:42:00,
2013-06-05 23:53:00,47.0,45.0,-100.00,NNE,25,5.0,10.0,93,0.00,,,0.85,0.000000,,2013-06-06 04:53:00,